sat.trackr.live / text

‹ back to catalog

STARLINK-34605

NORAD 64677 · 2025-139P

PAYLOAD ACTIVE UNKNOWN

§ Identity

Operator
Country
US
Launch date
2025-06-28
Launch site
AFETR
Launch vehicle
Mass (kg)
RCS (m²)

Purposes: comms

External: N2YO · Heavens-Above · Gunter

§ Orbital elements

Epoch: 2026-05-25T02:52:20.885088Z

Period
94.10 min
Inclination
53.1598°
Eccentricity
0.0001129
Mean motion
15.30210699 rev/d
Perigee alt
474.4 km
Apogee alt
476.0 km
Semi-major
6,853.3 km
B*
5.0969e-4
RAAN
121.5416°
Arg perigee
103.5822°
Mean anomaly
256.5304°
Rev number
5,213

§ Raw data

STARLINK-346051 64677U 25139P   26145.11968617  .00014772  00000+0  50969-3 0  99992 64677  53.1598 121.5416 0001129 103.5822 256.5304 15.30210699 52139

JSON: /api/v1/satellites/64677 · /tle

For live sub-satellite position, see the globe view (requires WebGL).

§ Visibility from observer

Set your observer location to see the next 7 days of passes ≥ 10°. The values pass through the URL so the page stays shareable.

No JS? Fill the form by hand. The geolocation button needs JavaScript.